TEST Weather Reports


time (UTC)temp
F
wind
direction
speed
knots
gust
knots
rain 1hr
in
rain 24hr
in
rain mn
in
humidity
%
barometer
mb
20260503185824 61 357 4.3 8.7 0.12 4.21 0.28 94 1016.7
20260503185329 61 358 4.3 8.7 0.12 4.21 0.28 94 1016.8
20260503184854 61 8 5.2 8.7 0.16 4.21 0.28 94 1016.8
20260503184319 61 340 5.2 8.7 0.12 4.17 0.28 94 1016.8
20260503183817 61 18 6.1 8.7 0.12 4.17 0.28 94 1016.7
20260503183323 61 7 6.1 8.7 0.16 4.17 0.28 94 1016.8
20260503182848 61 9 5.2 7.8 0.16 4.17 0.28 94 1016.9
20260503182332 61 347 3.5 7.8 0.12 4.13 0.27 94 1016.8
20260503181811 61 359 4.3 7.0 0.16 4.13 0.27 94 1016.7
20260503181333 60 334 4.3 7.8 0.16 4.13 0.27 94 1016.7
20260503180816 60 2 5.2 7.8 0.20 4.13 0.27 94 1016.6
20260503180321 60 358 5.2 8.7 0.16 4.09 0.26 94 1016.5
20260503175822 60 25 4.3 8.7 0.20 4.09 0.26 94 1016.6
20260503175327 60 352 6.1 8.7 0.20 4.09 0.26 94 1016.6
20260503174844 61 11 6.1 8.7 0.20 4.06 0.25 94 1016.8
20260503174334 61 9 5.2 7.0 0.20 4.06 0.25 94 1016.9
20260503173832 61 333 4.3 7.8 0.24 4.06 0.25 94 1017.0
20260503173316 61 349 5.2 9.6 0.20 4.02 0.24 94 1016.9
20260503172820 61 346 7.8 9.6 0.24 4.02 0.24 95 1016.9
20260503172344 61 17 6.1 8.7 0.24 4.02 0.24 95 1016.9
20260503171827 61 13 6.1 8.7 0.24 3.98 0.24 95 1017.1
20260503171331 61 27 6.1 8.7 0.28 3.98 0.24 95 1017.2
20260503170835 61 17 7.0 12.2 0.24 3.94 0.23 95 1017.3
20260503170311 61 344 7.8 12.2 0.28 3.94 0.23 95 1017.3
20260503150843 61 350 3.5 6.1 0.43 3.35 0.11 95 1018.8
20260503150326 61 356 4.3 7.8 0.47 3.31 0.10 95 1018.7
20260503131336 61 340 3.5 5.2 0.83 2.32 0.46 94 1019.7
20260503130815 61 359 2.6 4.3 0.83 2.28 0.46 94 1019.8
20260503130319 61 352 1.7 4.3 0.79 2.20 0.44 94 1019.9
20260503110359 63 294 0.9 2.6 0.31 0.71 0.14 92 1019.7
20260503090333 63 359 0.0 0.0 0.00 0.28 0.06 88 1018.8
20260503081338 65 305 2.6 5.2 0.00 0.28 0.06 84 1018.5
20260503080815 65 348 1.7 5.2 0.00 0.28 0.06 82 1018.6
20260503080319 66 248 1.7 7.0 0.00 0.28 0.06 82 1018.5
20260503072817 66 40 4.3 6.1 0.04 0.28 0.06 80 1017.9
20260503072314 65 31 4.3 6.1 0.04 0.28 0.06 81 1017.7
20260503071819 65 40 4.3 6.1 0.08 0.28 0.06 81 1017.7
20260503071339 65 46 4.3 8.7 0.12 0.28 0.06 82 1017.7
20260503070821 65 43 5.2 8.7 0.20 0.28 0.06 82 1017.7
20260503070326 64 46 6.1 7.8 0.20 0.28 0.06 84 1017.8
20260503060330 68 350 0.9 4.3 0.00 0.08 0.02 76 1018.2
20260503054819 70 342 3.5 5.2 0.08 0.08 0.02 71 1018.2
20260503054324 70 53 3.5 5.2 0.08 0.08 0.02 72 1018.2
20260503053828 70 58 2.6 4.3 0.08 0.08 0.02 71 1018.1
20260503053324 70 34 2.6 6.1 0.08 0.08 0.02 71 1018.2
20260503052848 70 48 3.5 9.6 0.08 0.08 0.02 71 1018.2
20260503052312 69 37 5.2 9.6 0.08 0.08 0.02 71 1018.2
20260503051836 69 10 4.3 7.8 0.08 0.08 0.02 74 1018.2
20260503051340 68 15 3.5 7.8 0.08 0.08 0.02 77 1018.3
20260503050815 68 13 1.7 4.3 0.08 0.08 0.02 77 1018.4
20260503050318 69 47 2.6 6.1 0.08 0.08 0.02 76 1018.4
20260503045820 70 297 0.9 7.0 0.04 0.04 0.01 73 1018.4
20260503045321 70 344 5.2 10.4 0.00 0.00 0.00 71 1018.5
20260503044825 71 14 4.3 10.4 0.00 0.00 0.00 69 1018.4
20260503044349 72 3 7.0 11.3 0.00 0.00 0.00 67 1018.4
20260503043832 72 9 7.8 11.3 0.00 0.00 0.00 68 1018.4
20260503043328 71 25 4.3 6.1 0.00 0.00 0.00 70 1018.5
20260503042832 71 26 3.5 7.8 0.00 0.00 0.00 72 1018.5
20260503042316 70 27 4.3 7.8 0.00 0.00 0.00 71 1018.5
20260503041841 70 11 5.2 11.3 0.00 0.00 0.00 75 1018.5
20260503041342 69 340 5.2 11.3 0.00 0.00 0.00 76 1018.6
20260503040817 68 334 6.1 8.7 0.00 0.00 0.00 76 1018.7
20260503040320 68 342 6.1 8.7 0.00 0.00 0.00 77 1018.7
20260503035820 69 15 3.5 13.9 0.00 0.00 0.00 75 1018.7
20260503035343 70 321 7.0 13.9 0.00 0.00 0.00 73 1018.9
20260503034826 70 352 5.2 7.8 0.00 0.00 0.00 74 1018.9
20260503034326 70 5 3.5 9.6 0.00 0.00 0.00 74 1018.9
20260503033828 70 333 4.3 9.6 0.00 0.00 0.00 73 1019.1
20260503033331 71 7 6.1 8.7 0.00 0.00 0.00 72 1019.0
20260503032831 72 7 6.1 12.2 0.00 0.00 0.00 70 1019.1
20260503032335 73 340 8.7 12.2 0.00 0.00 0.00 65 1019.2
20260503031833 73 15 8.7 15.6 0.00 0.00 0.00 63 1019.1
20260503031316 74 359 11.3 15.6 0.00 0.00 0.00 61 1019.2
20260503030819 74 340 6.1 14.8 0.00 0.00 0.00 62 1019.3
20260503030342 74 356 7.8 13.0 0.00 0.00 0.00 61 1019.4
20260503025824 74 360 8.7 12.2 0.00 0.00 0.00 61 1019.5
20260503025321 74 331 7.8 10.4 0.00 0.00 0.00 60 1019.6
20260503024823 74 342 8.7 12.2 0.00 0.00 0.00 59 1019.6
20260503024334 75 342 8.7 13.0 0.00 0.00 0.00 59 1019.8
20260503023827 76 341 7.8 13.0 0.00 0.00 0.00 59 1019.8
20260503023325 75 7 10.4 18.2 0.00 0.00 0.00 58 1019.9
20260503022821 76 342 13.0 19.1 0.00 0.00 0.00 58 1020.1
20260503022321 75 355 10.4 19.1 0.00 0.00 0.00 59 1020.1
20260503021823 75 17 11.3 16.5 0.00 0.00 0.00 59 1020.1
20260503021344 74 28 10.4 16.5 0.00 0.00 0.00 61 1020.1
20260503020837 73 19 9.6 15.6 0.00 0.00 0.00 60 1020.2
20260503020319 73 15 9.6 15.6 0.00 0.00 0.00 61 1020.4
20260503015816 72 25 8.7 17.4 0.00 0.00 0.00 62 1020.4
20260503015318 72 38 9.6 17.4 0.00 0.00 0.00 61 1020.5
20260503014822 72 352 7.8 18.2 0.00 0.00 0.00 62 1020.7
20260503014324 72 18 9.6 14.8 0.00 0.00 0.00 62 1020.6
20260503013821 72 360 7.8 14.8 0.00 0.00 0.00 63 1020.7
20260503013323 72 340 9.6 13.9 0.00 0.00 0.00 62 1020.8
20260503012821 72 354 9.6 14.8 0.00 0.00 0.00 62 1020.8
20260503012325 72 346 8.7 13.9 0.00 0.00 0.00 63 1020.9
20260503011829 71 350 9.6 15.6 0.00 0.00 0.00 62 1020.9
20260503011331 71 339 8.7 16.5 0.00 0.00 0.00 64 1020.9
20260503010834 71 357 9.6 15.6 0.00 0.00 0.00 63 1021.0
20260503010332 71 345 8.7 15.6 0.00 0.00 0.00 63 1021.1
20260503005812 71 333 8.7 13.0 0.00 0.00 0.00 63 1021.1
20260503005317 71 345 8.7 13.0 0.00 0.00 0.00 62 1021.1
20260503004840 71 330 9.6 14.8 0.00 0.00 0.00 61 1021.2
20260503004320 71 7 8.7 12.2 0.00 0.00 0.00 63 1021.5
20260503003841 71 11 8.7 10.4 0.00 0.00 0.00 64 1021.5
20260503003313 70 38 7.8 11.3 0.00 0.00 0.00 64 1021.4
20260503002841 70 29 8.7 12.2 0.00 0.00 0.00 64 1021.5
20260503002313 69 340 7.8 16.5 0.00 0.00 0.00 65 1021.5
20260503001812 69 359 10.4 15.6 0.00 0.00 0.00 64 1021.5
20260503001313 69 345 11.3 14.8 0.00 0.00 0.00 65 1021.5
20260503000816 69 9 9.6 14.8 0.00 0.00 0.00 65 1021.6
20260503000320 69 351 7.0 13.0 0.00 0.00 0.00 66 1021.7
20260502235823 69 344 7.0 8.7 0.00 0.00 0.00 66 1021.7
20260502235319 69 13 7.0 13.9 0.00 0.00 0.00 67 1021.8
20260502234823 68 12 7.0 13.9 0.00 0.00 0.00 66 1021.7
20260502234327 69 17 7.0 9.6 0.00 0.00 0.00 66 1021.7
20260502233830 69 24 5.2 10.4 0.00 0.00 0.00 67 1021.8
20260502233315 69 25 7.0 14.8 0.00 0.00 0.00 65 1021.8
20260502232836 69 25 9.6 14.8 0.00 0.00 0.00 65 1021.8
20260502232313 68 26 7.8 12.2 0.00 0.00 0.00 65 1021.9
20260502231817 69 1 7.8 13.0 0.00 0.00 0.00 65 1021.9
20260502231338 68 333 7.8 13.0 0.00 0.00 0.00 65 1021.8
20260502230816 68 356 6.1 12.2 0.00 0.00 0.00 65 1021.9
20260502230321 68 329 8.7 14.8 0.00 0.00 0.00 65 1021.8
20260502225822 68 356 7.0 13.9 0.00 0.00 0.00 65 1021.8
20260502225324 68 9 7.8 13.9 0.00 0.00 0.00 65 1021.8
20260502224819 68 36 7.8 13.0 0.00 0.00 0.00 65 1021.8
20260502224327 68 24 7.8 13.0 0.00 0.00 0.00 65 1021.7
20260502223824 68 19 5.2 13.0 0.00 0.00 0.00 65 1021.7
20260502223348 67 13 7.0 11.3 0.00 0.00 0.00 65 1021.6
20260502222851 67 17 5.2 8.7 0.00 0.00 0.00 66 1021.7
20260502222315 67 37 7.0 8.7 0.00 0.00 0.00 66 1021.7
20260502221811 67 5 6.1 9.6 0.00 0.00 0.00 66 1021.7
20260502221322 67 5 6.1 8.7 0.00 0.00 0.00 66 1021.6
20260502220818 67 358 7.0 11.3 0.00 0.00 0.00 65 1021.7
20260502220320 67 26 5.2 11.3 0.00 0.00 0.00 65 1021.4
20260502215821 67 346 5.2 10.4 0.00 0.00 0.00 65 1021.3
20260502215323 67 8 6.1 10.4 0.00 0.00 0.00 64 1021.2
20260502214827 67 30 6.1 11.3 0.00 0.00 0.00 64 1021.1
20260502214327 67 17 5.2 12.2 0.00 0.00 0.00 64 1021.0
20260502213829 67 353 7.8 13.0 0.00 0.00 0.00 64 1021.0
20260502213326 67 17 6.1 11.3 0.00 0.00 0.00 64 1021.0
20260502212835 67 38 8.7 11.3 0.00 0.00 0.00 65 1020.9
20260502212313 67 355 7.0 14.8 0.00 0.00 0.00 65 1021.0
20260502211818 67 7 7.0 14.8 0.00 0.00 0.00 65 1020.9
20260502211323 67 41 7.0 13.0 0.00 0.00 0.00 65 1020.9
20260502210824 67 22 7.8 13.0 0.00 0.00 0.00 65 1020.8
20260502210321 67 32 7.8 12.2 0.00 0.00 0.00 65 1020.8
20260502205823 67 19 7.8 15.6 0.00 0.00 0.00 65 1020.8
20260502205328 67 346 7.0 15.6 0.00 0.00 0.00 64 1020.8
20260502204829 67 37 5.2 9.6 0.00 0.00 0.00 64 1020.7
20260502204313 67 19 5.2 13.0 0.00 0.00 0.00 64 1020.7
20260502203811 67 15 7.0 12.2 0.00 0.00 0.00 64 1020.7
20260502203316 67 30 6.1 12.2 0.00 0.00 0.00 64 1020.7
20260502202819 67 19 6.1 9.6 0.00 0.00 0.00 64 1020.5
20260502202324 67 21 7.0 12.2 0.00 0.00 0.00 64 1020.6
20260502201827 67 33 6.1 12.2 0.00 0.00 0.00 64 1020.6
20260502201311 67 21 6.1 11.3 0.00 0.00 0.00 65 1020.5
20260502200836 67 30 6.1 11.3 0.00 0.00 0.00 65 1020.5
20260502200312 66 26 6.1 10.4 0.00 0.00 0.00 66 1020.6
20260502195832 66 5 3.5 8.7 0.00 0.00 0.00 67 1020.6
20260502195315 66 31 4.3 8.7 0.00 0.00 0.00 67 1020.5
20260502194821 66 23 5.2 9.6 0.00 0.00 0.00 67 1020.3
20260502194346 66 44 5.2 9.6 0.00 0.00 0.00 67 1020.4
20260502193851 66 32 4.3 8.7 0.00 0.00 0.00 67 1020.4
20260502193321 66 41 6.1 8.7 0.00 0.00 0.00 67 1020.4
20260502192824 66 37 5.2 10.4 0.00 0.00 0.00 67 1020.3
20260502192329 67 42 6.1 12.2 0.00 0.00 0.00 67 1020.3
20260502191855 67 37 6.1 11.3 0.00 0.00 0.00 67 1020.3
20260502191317 67 15 6.1 12.2 0.00 0.00 0.00 67 1020.3
20260502190836 67 18 6.1 13.9 0.00 0.00 0.00 67 1020.3